Time,TemperatureF,DewpointF,PressureIn,WindDirection,WindDirectionDegrees,WindSpeedMPH,WindSpeedGustMPH,Humidity,HourlyPrecipIn,Conditions,Clouds,dailyrainin,SoftwareType,DateUTC
2013-04-02 00:00:00,43.2,39.2,27.64,North,0,0.0,0.2,86,0.00,,,0.02,WUHU216HW,2013-04-02 07:00:00,
2013-04-02 00:05:00,43.0,39.1,27.64,North,0,0.0,0.2,86,0.00,,,0.00,WUHU216HW,2013-04-02 07:05:00,
2013-04-02 00:10:00,43.0,39.1,27.64,North,0,0.0,0.2,86,0.00,,,0.00,WUHU216HW,2013-04-02 07:10:00,
2013-04-02 00:15:00,42.8,38.9,27.64,North,0,0.0,0.0,86,0.00,,,0.00,WUHU216HW,2013-04-02 07:15:00,
2013-04-02 00:20:00,42.8,38.9,27.63,North,0,0.0,0.0,86,0.00,,,0.00,WUHU216HW,2013-04-02 07:20:00,
2013-04-02 00:25:00,42.7,39.1,27.63,North,0,0.0,0.0,87,0.00,,,0.00,WUHU216HW,2013-04-02 07:25:00,
2013-04-02 00:30:00,42.7,38.7,27.63,North,0,0.0,0.0,86,0.00,,,0.00,WUHU216HW,2013-04-02 07:30:00,
2013-04-02 00:35:00,42.5,38.5,27.63,North,0,0.0,0.0,86,0.00,,,0.00,WUHU216HW,2013-04-02 07:35:00,
2013-04-02 00:40:00,42.5,38.9,27.63,North,0,0.0,0.0,87,0.00,,,0.00,WUHU216HW,2013-04-02 07:40:00,
2013-04-02 00:45:00,42.3,38.3,27.63,North,0,0.0,0.0,86,0.00,,,0.00,WUHU216HW,2013-04-02 07:45:00,
2013-04-02 00:50:00,42.1,38.2,27.63,North,0,0.0,0.0,86,0.00,,,0.00,WUHU216HW,2013-04-02 07:50:00,
2013-04-02 00:55:00,42.1,38.5,27.63,North,0,0.0,0.0,87,0.00,,,0.00,WUHU216HW,2013-04-02 07:55:00,
2013-04-02 01:00:00,42.1,38.5,27.63,North,0,0.0,0.2,87,0.00,,,0.00,WUHU216HW,2013-04-02 08:00:00,
2013-04-02 01:05:00,41.9,38.4,27.63,North,0,0.0,0.4,87,0.00,,,0.00,WUHU216HW,2013-04-02 08:05:00,
2013-04-02 01:10:00,41.9,38.4,27.63,NNW,338,0.0,0.4,87,0.00,,,0.00,WUHU216HW,2013-04-02 08:10:00,
2013-04-02 01:15:00,41.9,38.4,27.63,NNW,338,0.0,0.4,87,0.00,,,0.00,WUHU216HW,2013-04-02 08:15:00,
2013-04-02 01:20:00,41.9,38.4,27.63,NNW,338,0.0,0.0,87,0.00,,,0.00,WUHU216HW,2013-04-02 08:20:00,
2013-04-02 01:25:00,41.8,38.2,27.63,NNW,338,0.0,0.0,87,0.00,,,0.00,WUHU216HW,2013-04-02 08:25:00,
2013-04-02 01:30:00,41.8,38.2,27.63,NNW,338,0.0,0.0,87,0.00,,,0.00,WUHU216HW,2013-04-02 08:30:00,
2013-04-02 01:35:00,41.6,38.0,27.64,NNW,338,0.0,0.0,87,0.00,,,0.00,WUHU216HW,2013-04-02 08:35:00,
2013-04-02 01:40:00,41.4,37.8,27.64,NNW,338,0.0,0.4,87,0.00,,,0.00,WUHU216HW,2013-04-02 08:40:00,
2013-04-02 01:45:00,41.4,37.8,27.64,NNW,338,0.0,0.4,87,0.00,,,0.00,WUHU216HW,2013-04-02 08:45:00,
2013-04-02 01:50:00,41.4,37.8,27.64,NNW,338,0.0,0.0,87,0.00,,,0.00,WUHU216HW,2013-04-02 08:50:00,
2013-04-02 01:55:00,41.4,37.8,27.64,NNE,23,0.0,0.4,87,0.00,,,0.00,WUHU216HW,2013-04-02 08:55:00,
2013-04-02 02:00:00,41.2,37.6,27.64,NNW,338,0.0,0.4,87,0.00,,,0.00,WUHU216HW,2013-04-02 09:00:00,
2013-04-02 02:05:00,41.2,37.6,27.64,NNW,338,0.0,0.2,87,0.00,,,0.00,WUHU216HW,2013-04-02 09:05:00,
2013-04-02 02:10:00,41.0,37.5,27.64,North,0,0.0,0.2,87,0.00,,,0.00,WUHU216HW,2013-04-02 09:10:00,
2013-04-02 02:15:00,41.0,37.5,27.64,North,0,0.0,0.2,87,0.00,,,0.00,WUHU216HW,2013-04-02 09:15:00,
2013-04-02 02:20:00,41.2,37.6,27.64,North,0,0.0,0.0,87,0.00,,,0.00,WUHU216HW,2013-04-02 09:20:00,
2013-04-02 02:25:00,41.0,37.5,27.64,NNE,23,0.0,0.7,87,0.00,,,0.00,WUHU216HW,2013-04-02 09:25:00,
2013-04-02 02:30:00,40.9,37.3,27.65,North,0,0.0,0.7,87,0.00,,,0.00,WUHU216HW,2013-04-02 09:30:00,
2013-04-02 02:35:00,40.7,37.1,27.64,NNW,338,0.0,0.2,87,0.00,,,0.00,WUHU216HW,2013-04-02 09:35:00,
2013-04-02 02:40:00,40.7,37.1,27.64,NNW,338,0.0,0.2,87,0.00,,,0.00,WUHU216HW,2013-04-02 09:40:00,
2013-04-02 02:45:00,40.7,37.4,27.64,NNW,338,0.0,0.0,88,0.00,,,0.00,WUHU216HW,2013-04-02 09:45:00,
2013-04-02 02:50:00,40.5,37.2,27.64,NNW,338,0.0,0.0,88,0.00,,,0.00,WUHU216HW,2013-04-02 09:50:00,
2013-04-02 02:55:00,40.5,37.2,27.64,NNW,338,0.0,0.0,88,0.00,,,0.00,WUHU216HW,2013-04-02 09:55:00,
2013-04-02 03:00:00,40.5,37.2,27.65,North,0,0.0,0.0,88,0.00,,,0.00,WUHU216HW,2013-04-02 10:00:00,
2013-04-02 03:05:00,40.5,37.2,27.64,North,0,0.0,0.0,88,0.00,,,0.00,WUHU216HW,2013-04-02 10:05:00,
2013-04-02 03:10:00,40.3,37.0,27.64,North,0,0.0,0.2,88,0.00,,,0.00,WUHU216HW,2013-04-02 10:10:00,
2013-04-02 03:15:00,40.3,37.0,27.65,NE,45,0.0,0.4,88,0.00,,,0.00,WUHU216HW,2013-04-02 10:15:00,
2013-04-02 03:20:00,40.1,37.2,27.65,NE,45,0.0,0.4,89,0.00,,,0.00,WUHU216HW,2013-04-02 10:20:00,
2013-04-02 03:25:00,40.0,36.6,27.65,NE,45,0.0,0.0,88,0.00,,,0.00,WUHU216HW,2013-04-02 10:25:00,
2013-04-02 03:30:00,40.0,37.0,27.65,NE,45,0.0,0.0,89,0.00,,,0.00,WUHU216HW,2013-04-02 10:30:00,
2013-04-02 03:35:00,40.0,37.0,27.65,NE,45,0.0,0.0,89,0.00,,,0.00,WUHU216HW,2013-04-02 10:35:00,
2013-04-02 03:40:00,40.0,37.0,27.65,NE,45,0.0,0.0,89,0.00,,,0.00,WUHU216HW,2013-04-02 10:40:00,
2013-04-02 03:45:00,40.0,37.0,27.65,NE,45,0.0,0.0,89,0.00,,,0.00,WUHU216HW,2013-04-02 10:45:00,
2013-04-02 03:50:00,40.0,37.0,27.64,NE,45,0.0,0.0,89,0.00,,,0.00,WUHU216HW,2013-04-02 10:50:00,
2013-04-02 03:55:00,40.0,37.0,27.64,NE,45,0.0,0.0,89,0.00,,,0.00,WUHU216HW,2013-04-02 10:55:00,
2013-04-02 04:00:00,40.0,37.0,27.65,NE,45,0.0,0.2,89,0.00,,,0.00,WUHU216HW,2013-04-02 11:00:00,
2013-04-02 04:05:00,39.8,36.8,27.65,NE,45,0.0,0.2,89,0.00,,,0.00,WUHU216HW,2013-04-02 11:05:00,
2013-04-02 04:10:00,39.8,36.8,27.65,NE,45,0.0,0.0,89,0.00,,,0.00,WUHU216HW,2013-04-02 11:10:00,
2013-04-02 04:15:00,39.8,36.8,27.65,NE,45,0.0,0.0,89,0.00,,,0.00,WUHU216HW,2013-04-02 11:15:00,
2013-04-02 04:20:00,39.6,36.6,27.64,NE,45,0.0,0.0,89,0.00,,,0.00,WUHU216HW,2013-04-02 11:20:00,
2013-04-02 04:25:00,39.6,36.6,27.64,NE,45,0.0,0.0,89,0.00,,,0.00,WUHU216HW,2013-04-02 11:25:00,
2013-04-02 04:30:00,39.6,36.6,27.64,NE,45,0.0,0.0,89,0.00,,,0.00,WUHU216HW,2013-04-02 11:30:00,
2013-04-02 04:35:00,39.6,36.6,27.64,North,0,0.0,0.0,89,0.00,,,0.00,WUHU216HW,2013-04-02 11:35:00,
2013-04-02 04:40:00,39.6,36.6,27.64,North,0,0.0,0.0,89,0.00,,,0.00,WUHU216HW,2013-04-02 11:40:00,
2013-04-02 04:45:00,39.6,36.6,27.64,North,0,0.0,0.0,89,0.00,,,0.00,WUHU216HW,2013-04-02 11:45:00,
2013-04-02 04:50:00,39.4,36.5,27.64,North,0,0.0,0.0,89,0.00,,,0.00,WUHU216HW,2013-04-02 11:50:00,
2013-04-02 04:55:00,39.4,36.5,27.64,North,0,0.0,0.0,89,0.00,,,0.00,WUHU216HW,2013-04-02 11:55:00,
2013-04-02 05:00:00,39.4,36.5,27.64,North,0,0.0,0.0,89,0.00,,,0.00,WUHU216HW,2013-04-02 12:00:00,
2013-04-02 05:05:00,39.4,36.5,27.64,North,0,0.0,0.0,89,0.00,,,0.00,WUHU216HW,2013-04-02 12:05:00,
2013-04-02 05:10:00,39.2,36.3,27.64,North,0,0.0,0.0,89,0.00,,,0.00,WUHU216HW,2013-04-02 12:10:00,
2013-04-02 05:15:00,39.2,36.3,27.64,North,0,0.0,0.0,89,0.00,,,0.00,WUHU216HW,2013-04-02 12:15:00,
2013-04-02 05:20:00,39.2,36.3,27.64,North,0,0.0,0.0,89,0.00,,,0.00,WUHU216HW,2013-04-02 12:20:00,
2013-04-02 05:25:00,39.2,36.5,27.64,North,0,0.0,0.0,90,0.00,,,0.00,WUHU216HW,2013-04-02 12:25:00,
2013-04-02 05:30:00,39.2,36.3,27.64,North,0,0.0,0.0,89,0.00,,,0.00,WUHU216HW,2013-04-02 12:30:00,
2013-04-02 05:35:00,39.2,36.5,27.63,North,0,0.0,0.0,90,0.00,,,0.00,WUHU216HW,2013-04-02 12:35:00,
2013-04-02 05:40:00,39.1,36.1,27.63,North,0,0.0,0.0,89,0.00,,,0.00,WUHU216HW,2013-04-02 12:40:00,
2013-04-02 05:45:00,39.1,36.4,27.63,North,0,0.0,0.0,90,0.00,,,0.00,WUHU216HW,2013-04-02 12:45:00,
2013-04-02 05:50:00,39.1,36.4,27.63,North,0,0.0,0.0,90,0.00,,,0.00,WUHU216HW,2013-04-02 12:50:00,
2013-04-02 05:55:00,39.1,36.4,27.62,North,0,0.0,0.0,90,0.00,,,0.00,WUHU216HW,2013-04-02 12:55:00,
2013-04-02 06:00:00,38.9,36.2,27.62,North,0,0.0,0.0,90,0.00,,,0.00,WUHU216HW,2013-04-02 13:00:00,
2013-04-02 06:05:00,38.9,36.2,27.62,North,0,0.0,0.0,90,0.00,,,0.00,WUHU216HW,2013-04-02 13:05:00,
2013-04-02 06:10:00,39.1,36.4,27.62,North,0,0.0,0.0,90,0.00,,,0.00,WUHU216HW,2013-04-02 13:10:00,
2013-04-02 06:15:00,39.1,36.4,27.62,North,0,0.0,0.0,90,0.00,,,0.00,WUHU216HW,2013-04-02 13:15:00,
2013-04-02 06:20:00,39.1,36.4,27.62,North,0,0.0,0.0,90,0.00,,,0.00,WUHU216HW,2013-04-02 13:20:00,
2013-04-02 06:25:00,38.9,36.2,27.62,North,0,0.0,0.0,90,0.00,,,0.00,WUHU216HW,2013-04-02 13:25:00,
2013-04-02 06:30:00,38.9,36.2,27.62,North,0,0.0,0.0,90,0.00,,,0.00,WUHU216HW,2013-04-02 13:30:00,
2013-04-02 06:35:00,38.9,36.2,27.62,North,0,0.0,0.0,90,0.00,,,0.00,WUHU216HW,2013-04-02 13:35:00,
2013-04-02 06:40:00,39.1,36.4,27.62,North,0,0.0,0.0,90,0.00,,,0.00,WUHU216HW,2013-04-02 13:40:00,
2013-04-02 06:45:00,38.7,36.0,27.62,North,0,0.0,0.0,90,0.00,,,0.00,WUHU216HW,2013-04-02 13:45:00,
2013-04-02 06:50:00,38.9,36.2,27.62,North,0,0.0,0.2,90,0.00,,,0.00,WUHU216HW,2013-04-02 13:50:00,
2013-04-02 06:55:00,38.9,36.2,27.62,North,0,0.0,0.2,90,0.00,,,0.00,WUHU216HW,2013-04-02 13:55:00,
2013-04-02 07:00:00,38.9,36.2,27.62,North,0,0.0,0.0,90,0.00,,,0.00,WUHU216HW,2013-04-02 14:00:00,
2013-04-02 07:05:00,39.1,36.4,27.63,North,0,0.0,0.0,90,0.00,,,0.00,WUHU216HW,2013-04-02 14:05:00,
2013-04-02 07:10:00,39.2,36.5,27.63,North,0,0.0,0.0,90,0.00,,,0.00,WUHU216HW,2013-04-02 14:10:00,
2013-04-02 07:15:00,39.4,36.7,27.63,North,0,0.0,0.0,90,0.00,,,0.00,WUHU216HW,2013-04-02 14:15:00,
2013-04-02 07:20:00,39.8,37.1,27.63,NNE,23,0.0,0.4,90,0.00,,,0.00,WUHU216HW,2013-04-02 14:20:00,
2013-04-02 07:25:00,40.3,37.6,27.64,NNE,23,0.0,0.4,90,0.01,,,0.01,WUHU216HW,2013-04-02 14:25:00,
2013-04-02 07:30:00,40.7,38.0,27.64,ENE,68,0.0,0.4,90,0.01,,,0.01,WUHU216HW,2013-04-02 14:30:00,
2013-04-02 07:35:00,41.4,38.7,27.64,ENE,68,0.0,0.4,90,0.01,,,0.01,WUHU216HW,2013-04-02 14:35:00,
2013-04-02 07:40:00,41.8,39.1,27.64,ENE,68,0.2,0.4,90,0.01,,,0.01,WUHU216HW,2013-04-02 14:40:00,
2013-04-02 07:45:00,42.1,39.4,27.64,ENE,68,0.0,0.4,90,0.01,,,0.01,WUHU216HW,2013-04-02 14:45:00,
2013-04-02 07:50:00,42.8,40.1,27.64,ENE,68,0.4,0.4,90,0.01,,,0.01,WUHU216HW,2013-04-02 14:50:00,
2013-04-02 07:55:00,43.4,40.4,27.64,SSE,158,0.4,0.7,89,0.01,,,0.01,WUHU216HW,2013-04-02 14:55:00,
2013-04-02 08:00:00,44.1,41.1,27.64,SE,135,0.0,0.7,89,0.01,,,0.01,WUHU216HW,2013-04-02 15:00:00,
2013-04-02 08:05:00,44.6,41.3,27.64,SE,135,0.2,0.4,88,0.01,,,0.01,WUHU216HW,2013-04-02 15:05:00,
2013-04-02 08:10:00,45.0,42.0,27.64,SE,135,0.0,0.4,89,0.01,,,0.01,WUHU216HW,2013-04-02 15:10:00,
2013-04-02 08:15:00,45.4,42.0,27.64,SE,135,0.4,0.7,88,0.01,,,0.01,WUHU216HW,2013-04-02 15:15:00,
2013-04-02 08:20:00,45.7,42.4,27.65,SE,135,0.2,0.7,88,0.01,,,0.01,WUHU216HW,2013-04-02 15:20:00,
2013-04-02 08:25:00,46.3,42.7,27.65,ESE,113,0.4,0.4,87,0.00,,,0.01,WUHU216HW,2013-04-02 15:25:00,
2013-04-02 08:30:00,46.6,43.0,27.65,ESE,113,0.2,0.7,87,0.00,,,0.01,WUHU216HW,2013-04-02 15:30:00,
2013-04-02 08:35:00,47.0,43.4,27.65,ESE,113,0.0,0.7,87,0.00,,,0.01,WUHU216HW,2013-04-02 15:35:00,
2013-04-02 08:40:00,47.5,43.6,27.65,ESE,113,0.2,0.4,86,0.00,,,0.01,WUHU216HW,2013-04-02 15:40:00,
2013-04-02 08:45:00,48.1,43.7,27.65,ESE,113,0.7,0.9,85,0.00,,,0.01,WUHU216HW,2013-04-02 15:45:00,
2013-04-02 08:50:00,49.3,44.9,27.64,ESE,113,0.7,0.9,85,0.00,,,0.01,WUHU216HW,2013-04-02 15:50:00,
2013-04-02 08:55:00,50.4,45.7,27.65,ESE,113,1.1,1.3,84,0.00,,,0.01,WUHU216HW,2013-04-02 15:55:00,
2013-04-02 09:00:00,51.3,46.0,27.64,East,90,0.0,1.3,82,0.00,,,0.01,WUHU216HW,2013-04-02 16:00:00,
2013-04-02 09:05:00,51.5,46.2,27.64,ESE,113,0.0,1.3,82,0.00,,,0.01,WUHU216HW,2013-04-02 16:05:00,
2013-04-02 09:10:00,51.5,45.8,27.65,ESE,113,0.0,0.7,81,0.00,,,0.01,WUHU216HW,2013-04-02 16:10:00,
2013-04-02 09:15:00,51.7,45.7,27.65,ESE,113,0.0,0.4,80,0.00,,,0.01,WUHU216HW,2013-04-02 16:15:00,
2013-04-02 09:20:00,51.8,45.9,27.64,ESE,113,0.0,0.0,80,0.00,,,0.01,WUHU216HW,2013-04-02 16:20:00,
2013-04-02 09:25:00,52.4,46.4,27.64,ESE,113,0.4,0.4,80,0.00,,,0.01,WUHU216HW,2013-04-02 16:25:00,
2013-04-02 09:30:00,53.5,47.2,27.64,South,180,0.2,1.1,79,0.00,,,0.01,WUHU216HW,2013-04-02 16:30:00,
2013-04-02 09:36:00,54.2,47.2,27.65,SE,135,1.3,1.3,77,0.00,,,0.01,WUHU216HW,2013-04-02 16:36:00,
2013-04-02 09:41:00,55.3,47.8,27.64,ESE,113,0.4,1.3,76,0.00,,,0.01,WUHU216HW,2013-04-02 16:41:00,
2013-04-02 09:46:00,56.2,48.0,27.64,SSE,158,1.6,1.6,74,0.00,,,0.01,WUHU216HW,2013-04-02 16:46:00,
2013-04-02 09:51:00,57.1,48.1,27.65,SE,135,2.2,2.2,72,0.00,,,0.01,WUHU216HW,2013-04-02 16:51:00,
2013-04-02 09:56:00,57.8,48.4,27.65,ENE,68,0.4,2.2,71,0.00,,,0.01,WUHU216HW,2013-04-02 16:56:00,
2013-04-02 10:01:00,58.7,48.5,27.64,North,0,1.1,1.8,69,0.00,,,0.01,WUHU216HW,2013-04-02 17:01:00,
2013-04-02 10:06:00,59.2,49.1,27.65,SE,135,1.1,1.8,69,0.00,,,0.01,WUHU216HW,2013-04-02 17:06:00,
2013-04-02 10:11:00,59.4,47.6,27.65,ESE,113,0.9,2.5,65,0.00,,,0.01,WUHU216HW,2013-04-02 17:11:00,
2013-04-02 10:16:00,59.8,47.2,27.64,NNW,338,0.4,2.5,63,0.00,,,0.01,WUHU216HW,2013-04-02 17:16:00,
2013-04-02 10:21:00,59.9,47.7,27.64,ESE,113,0.4,2.0,64,0.00,,,0.01,WUHU216HW,2013-04-02 17:21:00,
2013-04-02 10:27:00,60.5,48.2,27.65,WSW,248,0.4,2.0,64,0.00,,,0.01,WUHU216HW,2013-04-02 17:27:00,
2013-04-02 10:32:00,60.7,48.1,27.64,NW,315,0.4,1.8,63,0.00,,,0.01,WUHU216HW,2013-04-02 17:32:00,
2013-04-02 10:37:00,61.0,48.4,27.64,North,0,1.1,1.8,63,0.00,,,0.01,WUHU216HW,2013-04-02 17:37:00,
2013-04-02 10:42:00,60.8,47.0,27.65,SE,135,1.1,3.4,60,0.00,,,0.01,WUHU216HW,2013-04-02 17:42:00,
2013-04-02 10:47:00,61.4,47.4,27.65,ESE,113,0.4,3.4,60,0.00,,,0.01,WUHU216HW,2013-04-02 17:47:00,
2013-04-02 10:52:00,61.7,48.6,27.64,North,0,0.0,1.8,62,0.00,,,0.01,WUHU216HW,2013-04-02 17:52:00,
2013-04-02 10:57:00,61.9,47.4,27.65,ENE,68,1.8,2.7,59,0.00,,,0.01,WUHU216HW,2013-04-02 17:57:00,
2013-04-02 11:02:00,61.7,45.8,27.65,NNW,338,1.1,4.5,56,0.00,,,0.01,WUHU216HW,2013-04-02 18:02:00,
2013-04-02 11:07:00,61.7,47.4,27.65,NNW,338,0.4,4.5,59,0.00,,,0.01,WUHU216HW,2013-04-02 18:07:00,
2013-04-02 11:12:00,62.5,48.0,27.65,West,270,0.4,2.2,59,0.00,,,0.01,WUHU216HW,2013-04-02 18:12:00,
2013-04-02 11:17:00,62.6,48.2,27.65,NNE,23,0.0,1.8,59,0.00,,,0.01,WUHU216HW,2013-04-02 18:17:00,
2013-04-02 11:22:00,62.6,46.6,27.64,SE,135,1.3,2.5,56,0.00,,,0.01,WUHU216HW,2013-04-02 18:22:00,
2013-04-02 11:27:00,62.5,47.4,27.64,SE,135,1.3,2.5,58,0.00,,,0.01,WUHU216HW,2013-04-02 18:27:00,
2013-04-02 11:32:00,62.6,47.2,27.64,ENE,68,1.3,2.5,57,0.00,,,0.01,WUHU216HW,2013-04-02 18:32:00,
2013-04-02 11:37:00,63.0,47.0,27.64,WSW,248,0.4,2.7,56,0.00,,,0.01,WUHU216HW,2013-04-02 18:37:00,
2013-04-02 11:42:00,63.2,46.6,27.64,ESE,113,1.8,2.7,55,0.00,,,0.01,WUHU216HW,2013-04-02 18:42:00,
2013-04-02 11:48:00,63.2,46.6,27.64,ESE,113,2.0,2.5,55,0.00,,,0.01,WUHU216HW,2013-04-02 18:48:00,
2013-04-02 11:53:00,63.5,47.0,27.64,West,270,0.2,2.7,55,0.00,,,0.01,WUHU216HW,2013-04-02 18:53:00,
2013-04-02 11:58:00,64.1,48.0,27.64,South,180,0.2,2.7,56,0.00,,,0.01,WUHU216HW,2013-04-02 18:58:00,
2013-04-02 12:03:00,64.1,47.0,27.64,NNE,23,2.5,2.9,54,0.00,,,0.01,WUHU216HW,2013-04-02 19:03:00,
2013-04-02 12:08:00,63.9,47.4,27.64,SE,135,1.1,2.9,55,0.00,,,0.01,WUHU216HW,2013-04-02 19:08:00,
2013-04-02 12:13:00,64.1,47.0,27.64,ESE,113,1.1,3.1,54,0.00,,,0.01,WUHU216HW,2013-04-02 19:13:00,
2013-04-02 12:18:00,64.1,47.0,27.64,ESE,113,0.4,3.1,54,0.00,,,0.01,WUHU216HW,2013-04-02 19:18:00,
2013-04-02 12:23:00,64.1,47.4,27.64,SE,135,0.9,2.0,55,0.00,,,0.01,WUHU216HW,2013-04-02 19:23:00,
2013-04-02 12:28:00,64.4,47.4,27.64,SE,135,1.1,2.0,54,0.00,,,0.01,WUHU216HW,2013-04-02 19:28:00,
2013-04-02 12:33:00,64.6,47.0,27.64,South,180,1.6,3.4,53,0.00,,,0.01,WUHU216HW,2013-04-02 19:33:00,
2013-04-02 12:38:00,64.8,47.2,27.64,NE,45,0.9,3.8,53,0.00,,,0.01,WUHU216HW,2013-04-02 19:38:00,
2013-04-02 12:43:00,65.0,46.9,27.64,WNW,293,0.4,3.8,52,0.00,,,0.01,WUHU216HW,2013-04-02 19:43:00,
2013-04-02 12:48:00,65.0,47.9,27.64,SE,135,1.1,2.9,54,0.00,,,0.01,WUHU216HW,2013-04-02 19:48:00,
2013-04-02 12:53:00,65.0,47.3,27.64,SSE,158,2.2,3.4,53,0.00,,,0.01,WUHU216HW,2013-04-02 19:53:00,
2013-04-02 12:58:00,65.0,46.9,27.64,SW,225,2.0,3.4,52,0.00,,,0.01,WUHU216HW,2013-04-02 19:58:00,
2013-04-02 13:03:00,64.8,47.7,27.64,SE,135,1.3,2.2,54,0.00,,,0.01,WUHU216HW,2013-04-02 20:03:00,
2013-04-02 13:08:00,64.8,47.7,27.64,ESE,113,0.4,2.5,54,0.00,,,0.01,WUHU216HW,2013-04-02 20:08:00,
2013-04-02 13:13:00,65.3,48.7,27.64,ESE,113,1.1,4.5,55,0.00,,,0.01,WUHU216HW,2013-04-02 20:13:00,
2013-04-02 13:18:00,65.2,48.5,27.64,NNE,23,1.3,4.5,55,0.00,,,0.01,WUHU216HW,2013-04-02 20:18:00,
2013-04-02 13:23:00,65.7,49.5,27.64,East,90,0.7,3.4,56,0.00,,,0.01,WUHU216HW,2013-04-02 20:23:00,
2013-04-02 13:28:00,66.1,49.4,27.64,NW,315,1.1,2.5,55,0.00,,,0.01,WUHU216HW,2013-04-02 20:28:00,
2013-04-02 13:34:00,65.9,47.8,27.64,West,270,0.2,5.1,52,0.00,,,0.01,WUHU216HW,2013-04-02 20:34:00,
2013-04-02 13:39:00,65.5,47.4,27.64,ESE,113,1.3,5.1,52,0.00,,,0.01,WUHU216HW,2013-04-02 20:39:00,
2013-04-02 13:44:00,65.3,47.7,27.64,SSE,158,1.1,3.1,53,0.00,,,0.01,WUHU216HW,2013-04-02 20:44:00,
2013-04-02 13:49:00,65.3,47.7,27.64,SW,225,0.7,3.8,53,0.00,,,0.01,WUHU216HW,2013-04-02 20:49:00,
2013-04-02 13:54:00,65.5,48.4,27.64,SW,225,2.5,3.8,54,0.00,,,0.01,WUHU216HW,2013-04-02 20:54:00,
2013-04-02 13:59:00,65.5,48.4,27.63,ESE,113,0.2,2.5,54,0.00,,,0.01,WUHU216HW,2013-04-02 20:59:00,
2013-04-02 14:04:00,65.5,48.4,27.63,ESE,113,1.1,3.8,54,0.00,,,0.01,WUHU216HW,2013-04-02 21:04:00,
2013-04-02 14:09:00,65.5,48.9,27.63,NW,315,0.7,3.8,55,0.00,,,0.01,WUHU216HW,2013-04-02 21:09:00,
2013-04-02 14:14:00,65.5,48.9,27.63,NW,315,0.2,2.2,55,0.00,,,0.01,WUHU216HW,2013-04-02 21:14:00,
2013-04-02 14:19:00,65.7,48.6,27.63,ENE,68,0.7,1.8,54,0.00,,,0.01,WUHU216HW,2013-04-02 21:19:00,
2013-04-02 14:24:00,65.3,48.7,27.63,WNW,293,1.1,2.5,55,0.00,,,0.01,WUHU216HW,2013-04-02 21:24:00,
2013-04-02 14:29:00,64.8,48.6,27.63,ESE,113,1.1,4.0,56,0.00,,,0.01,WUHU216HW,2013-04-02 21:29:00,
2013-04-02 14:34:00,64.8,49.2,27.63,NNE,23,1.8,4.0,57,0.00,,,0.01,WUHU216HW,2013-04-02 21:34:00,
2013-04-02 14:39:00,65.2,49.0,27.63,NNW,338,1.8,3.6,56,0.00,,,0.01,WUHU216HW,2013-04-02 21:39:00,
2013-04-02 14:44:00,64.8,48.2,27.63,SSE,158,3.4,4.0,55,0.00,,,0.01,WUHU216HW,2013-04-02 21:44:00,
2013-04-02 14:49:00,64.8,48.2,27.62,SSE,158,2.7,4.0,55,0.00,,,0.01,WUHU216HW,2013-04-02 21:49:00,
2013-04-02 14:54:00,65.3,48.7,27.62,NE,45,0.4,3.4,55,0.00,,,0.01,WUHU216HW,2013-04-02 21:54:00,
2013-04-02 14:59:00,65.2,48.5,27.62,ESE,113,2.0,2.9,55,0.00,,,0.01,WUHU216HW,2013-04-02 21:59:00,
2013-04-02 15:04:00,64.8,47.7,27.61,SSW,203,0.9,2.9,54,0.00,,,0.01,WUHU216HW,2013-04-02 22:04:00,
2013-04-02 15:09:00,64.8,48.2,27.61,ENE,68,0.9,2.5,55,0.00,,,0.01,WUHU216HW,2013-04-02 22:09:00,
2013-04-02 15:14:00,64.4,47.8,27.61,SW,225,1.8,3.4,55,0.00,,,0.01,WUHU216HW,2013-04-02 22:14:00,
2013-04-02 15:19:00,64.4,47.4,27.61,SE,135,2.5,3.4,54,0.00,,,0.01,WUHU216HW,2013-04-02 22:19:00,
2013-04-02 15:24:00,64.4,47.4,27.61,West,270,1.3,3.4,54,0.00,,,0.01,WUHU216HW,2013-04-02 22:24:00,
2013-04-02 15:29:00,64.8,47.2,27.61,ESE,113,2.9,3.1,53,0.00,,,0.01,WUHU216HW,2013-04-02 22:29:00,
2013-04-02 15:34:00,64.4,47.8,27.61,NNE,23,0.4,3.1,55,0.00,,,0.01,WUHU216HW,2013-04-02 22:34:00,
2013-04-02 15:39:00,64.6,47.5,27.61,East,90,0.4,3.1,54,0.00,,,0.01,WUHU216HW,2013-04-02 22:39:00,
2013-04-02 15:45:00,64.3,47.2,27.61,ENE,68,1.6,3.1,54,0.00,,,0.01,WUHU216HW,2013-04-02 22:45:00,
2013-04-02 15:50:00,64.1,47.4,27.61,South,180,2.0,2.0,55,0.00,,,0.01,WUHU216HW,2013-04-02 22:50:00,
2013-04-02 15:55:00,64.3,47.6,27.61,South,180,2.2,3.4,55,0.00,,,0.01,WUHU216HW,2013-04-02 22:55:00,
2013-04-02 16:00:00,64.4,47.8,27.61,ESE,113,0.4,3.4,55,0.00,,,0.01,WUHU216HW,2013-04-02 23:00:00,
2013-04-02 16:05:00,64.4,47.8,27.61,SSE,158,1.6,2.7,55,0.00,,,0.01,WUHU216HW,2013-04-02 23:05:00,
2013-04-02 16:10:00,64.4,47.4,27.61,SE,135,3.1,3.6,54,0.00,,,0.01,WUHU216HW,2013-04-02 23:10:00,
2013-04-02 16:15:00,64.3,47.6,27.61,East,90,2.2,4.9,55,0.00,,,0.01,WUHU216HW,2013-04-02 23:15:00,
2013-04-02 16:20:00,64.1,47.4,27.61,North,0,0.4,4.9,55,0.00,,,0.01,WUHU216HW,2013-04-02 23:20:00,
2013-04-02 16:25:00,64.3,48.2,27.61,SSW,203,1.1,2.7,56,0.00,,,0.01,WUHU216HW,2013-04-02 23:25:00,
2013-04-02 16:30:00,63.7,47.2,27.61,SE,135,2.0,2.5,55,0.00,,,0.01,WUHU216HW,2013-04-02 23:30:00,
2013-04-02 16:35:00,63.7,47.2,27.61,ESE,113,0.7,2.9,55,0.00,,,0.01,WUHU216HW,2013-04-02 23:35:00,
2013-04-02 16:40:00,63.7,47.2,27.61,SW,225,1.8,2.9,55,0.00,,,0.01,WUHU216HW,2013-04-02 23:40:00,
2013-04-02 16:45:00,63.4,46.8,27.61,ENE,68,1.8,2.5,55,0.00,,,0.01,WUHU216HW,2013-04-02 23:45:00,
2013-04-02 16:50:00,63.2,47.2,27.61,NE,45,0.9,2.5,56,0.00,,,0.01,WUHU216HW,2013-04-02 23:50:00,
2013-04-02 16:55:00,63.0,47.4,27.61,SSW,203,0.4,2.5,57,0.00,,,0.01,WUHU216HW,2013-04-02 23:55:00,
2013-04-02 17:01:00,62.8,47.8,27.62,East,90,0.4,2.5,58,0.00,,,0.01,WUHU216HW,2013-04-03 00:01:00,
2013-04-02 17:06:00,62.6,47.2,27.62,North,0,0.2,2.2,57,0.00,,,0.01,WUHU216HW,2013-04-03 00:06:00,
2013-04-02 17:11:00,62.3,47.8,27.61,SSW,203,0.4,2.9,59,0.00,,,0.01,WUHU216HW,2013-04-03 00:11:00,
2013-04-02 17:16:00,62.1,47.6,27.62,South,180,0.7,2.9,59,0.00,,,0.01,WUHU216HW,2013-04-03 00:16:00,
2013-04-02 17:21:00,61.9,48.0,27.62,WSW,248,0.4,2.5,60,0.00,,,0.01,WUHU216HW,2013-04-03 00:21:00,
2013-04-02 17:27:00,61.9,48.0,27.61,SSW,203,1.1,1.8,60,0.00,,,0.01,WUHU216HW,2013-04-03 00:27:00,
2013-04-02 17:32:00,61.7,47.8,27.61,West,270,0.0,3.4,60,0.00,,,0.01,WUHU216HW,2013-04-03 00:32:00,
2013-04-02 17:37:00,61.6,47.6,27.61,NNE,23,0.2,3.6,60,0.00,,,0.01,WUHU216HW,2013-04-03 00:37:00,
2013-04-02 17:42:00,61.2,47.7,27.61,NW,315,0.2,3.6,61,0.00,,,0.01,WUHU216HW,2013-04-03 00:42:00,
2013-04-02 17:47:00,61.0,47.5,27.61,SSE,158,0.0,2.7,61,0.00,,,0.01,WUHU216HW,2013-04-03 00:47:00,
2013-04-02 17:52:00,60.8,47.4,27.61,ENE,68,0.0,1.8,61,0.00,,,0.01,WUHU216HW,2013-04-03 00:52:00,
2013-04-02 17:57:00,60.7,47.6,27.61,NNE,23,0.2,0.9,62,0.00,,,0.01,WUHU216HW,2013-04-03 00:57:00,
2013-04-02 18:02:00,60.5,47.4,27.61,WNW,293,0.0,0.7,62,0.00,,,0.01,WUHU216HW,2013-04-03 01:02:00,
2013-04-02 18:07:00,60.5,47.4,27.61,WNW,293,0.0,0.7,62,0.00,,,0.01,WUHU216HW,2013-04-03 01:07:00,
2013-04-02 18:12:00,60.3,47.3,27.61,SW,225,0.2,1.1,62,0.00,,,0.01,WUHU216HW,2013-04-03 01:12:00,
2013-04-02 18:17:00,60.1,47.5,27.61,North,0,0.0,1.1,63,0.00,,,0.01,WUHU216HW,2013-04-03 01:17:00,
2013-04-02 18:22:00,59.9,46.9,27.61,NNE,23,0.0,0.4,62,0.00,,,0.01,WUHU216HW,2013-04-03 01:22:00,
2013-04-02 18:28:00,59.8,46.7,27.61,West,270,0.0,0.2,62,0.00,,,0.01,WUHU216HW,2013-04-03 01:28:00,
2013-04-02 18:33:00,59.8,46.7,27.61,NW,315,0.0,0.4,62,0.00,,,0.01,WUHU216HW,2013-04-03 01:33:00,
2013-04-02 18:38:00,59.6,46.5,27.61,NE,45,0.0,0.4,62,0.00,,,0.01,WUHU216HW,2013-04-03 01:38:00,
2013-04-02 18:43:00,59.4,46.4,27.61,NE,45,0.0,0.0,62,0.00,,,0.01,WUHU216HW,2013-04-03 01:43:00,
2013-04-02 18:48:00,59.2,46.6,27.61,NE,45,0.0,0.0,63,0.00,,,0.01,WUHU216HW,2013-04-03 01:48:00,
2013-04-02 18:53:00,59.0,46.5,27.61,NNW,338,0.0,0.0,63,0.00,,,0.01,WUHU216HW,2013-04-03 01:53:00,
2013-04-02 18:58:00,58.7,46.5,27.61,NNE,23,0.0,0.2,64,0.00,,,0.01,WUHU216HW,2013-04-03 01:58:00,
2013-04-02 21:01:00,52.0,44.4,27.62,North,0,0.0,0.0,75,0.00,,,0.01,WUHU216HW,2013-04-03 04:01:00,
2013-04-02 21:03:00,52.2,44.6,27.62,North,0,0.0,0.0,75,0.00,,,0.01,WUHU216HW,2013-04-03 04:03:00,
2013-04-02 21:08:00,52.0,44.4,27.62,North,0,0.0,0.0,75,0.00,,,0.01,WUHU216HW,2013-04-03 04:08:00,
2013-04-02 21:31:00,50.8,44.1,27.63,North,0,0.0,0.0,78,0.00,,,0.01,WUHU216HW,2013-04-03 04:31:00,
2013-04-02 21:34:00,50.8,44.1,27.63,North,0,0.0,0.0,78,0.00,,,0.01,WUHU216HW,2013-04-03 04:34:00,
2013-04-02 21:39:00,50.8,44.1,27.63,North,0,0.0,0.0,78,0.00,,,0.01,WUHU216HW,2013-04-03 04:39:00,
2013-04-02 22:00:00,49.7,43.7,27.64,North,0,0.0,0.0,80,0.00,,,0.01,WUHU216HW,2013-04-03 05:00:00,
2013-04-02 22:03:00,49.7,43.7,27.64,North,0,0.0,0.0,80,0.00,,,0.01,WUHU216HW,2013-04-03 05:03:00,
2013-04-02 22:08:00,49.7,43.7,27.64,North,0,0.0,0.0,80,0.00,,,0.01,WUHU216HW,2013-04-03 05:08:00,
2013-04-02 22:30:00,49.0,43.0,27.64,North,0,0.0,0.0,80,0.00,,,0.01,WUHU216HW,2013-04-03 05:30:00,
2013-04-02 22:33:00,49.0,43.0,27.64,North,0,0.0,0.0,80,0.00,,,0.01,WUHU216HW,2013-04-03 05:33:00,
2013-04-02 22:38:00,49.0,43.0,27.64,North,0,0.0,0.0,80,0.00,,,0.01,WUHU216HW,2013-04-03 05:38:00,
2013-04-02 23:00:00,47.9,41.9,27.65,NNE,23,0.0,0.0,80,0.00,,,0.01,WUHU216HW,2013-04-03 06:00:00,
2013-04-02 23:03:00,47.9,41.9,27.65,NNE,23,0.0,0.0,80,0.00,,,0.01,WUHU216HW,2013-04-03 06:03:00,
2013-04-02 23:08:00,47.9,41.9,27.65,NNE,23,0.0,0.0,80,0.00,,,0.01,WUHU216HW,2013-04-03 06:08:00,
2013-04-02 23:30:00,47.2,42.3,27.64,ENE,68,0.0,0.0,83,0.00,,,0.01,WUHU216HW,2013-04-03 06:30:00,
2013-04-02 23:33:00,47.2,41.9,27.64,North,0,0.0,0.0,82,0.00,,,0.01,WUHU216HW,2013-04-03 06:33:00,
2013-04-02 23:38:00,47.2,42.3,27.64,ENE,68,0.0,0.0,83,0.00,,,0.01,WUHU216HW,2013-04-03 06:38:00,